• In Czech Republic
  • List of Countries
  • For 7 days
  • Water Temperature
  • Satellite Maps
  • Weather Map
  • Weather Widgets
  • user-avatar
    Login

    Hourly Weather Myakotino

    Today, 20 September, Thursday

    Time Temperature Precipitation Wind Pressure Humidity
    00:00 +16°C° 0 mm 3 mps 739 mmHg 95%
    01:00 +16°C° 0 mm 3 mps 739 mmHg 95%
    02:00 +15°C° 0 mm 2 mps 739 mmHg 97%
    03:00 +14°C° 0 mm 3 mps 739 mmHg 97%
    04:00 +14°C° 0 mm 3 mps 740 mmHg 97%
    05:00 +14°C° 0 mm 3 mps 740 mmHg 97%
    06:00 +16°C° 0 mm 3 mps 740 mmHg 94%
    07:00 +17°C° 0 mm 4 mps 740 mmHg 91%
    08:00 +17°C° 0 mm 4 mps 740 mmHg 86%
    09:00 +19°C° 0 mm 4 mps 740 mmHg 79%
    10:00 +20°C° 0 mm 4 mps 741 mmHg 71%
    11:00 +21°C° 0 mm 4 mps 741 mmHg 63%
    12:00 +22°C° 0 mm 4 mps 741 mmHg 61%
    13:00 +22°C° 0 mm 4 mps 741 mmHg 59%
    14:00 +24°C° 0 mm 3 mps 741 mmHg 58%
    15:00 +23°C° 0 mm 2 mps 741 mmHg 64%
    16:00 +21°C° 0 mm 2 mps 741 mmHg 69%
    17:00 +20°C° 0 mm 2 mps 741 mmHg 75%
    18:00 +19°C° 0 mm 2 mps 741 mmHg 79%
    19:00 +17°C° 0 mm 2 mps 742 mmHg 84%
    20:00 +16°C° 0 mm 2 mps 742 mmHg 88%
    21:00 +16°C° 0 mm 2 mps 742 mmHg 89%
    22:00 +15°C° 0 mm 2 mps 742 mmHg 91%
    23:00 +15°C° 0 mm 2 mps 742 mmHg 92%

    Tomorrow, 21 September, Friday

    Time Temperature Precipitation Wind Pressure Humidity
    00:00 +14°C° 0 mm 2 mps 742 mmHg 92%
    01:00 +14°C° 0 mm 2 mps 742 mmHg 93%
    02:00 +14°C° 0 mm 2 mps 743 mmHg 93%
    03:00 +14°C° 0 mm 2 mps 743 mmHg 93%
    04:00 +13°C° 0 mm 2 mps 743 mmHg 94%
    05:00 +13°C° 0 mm 2 mps 743 mmHg 94%
    06:00 +14°C° 0 mm 2 mps 743 mmHg 89%
    07:00 +16°C° 0 mm 2 mps 743 mmHg 84%
    08:00 +17°C° 0 mm 2 mps 743 mmHg 80%
    09:00 +19°C° 0 mm 2 mps 744 mmHg 74%
    10:00 +20°C° 0 mm 2 mps 744 mmHg 68%
    11:00 +23°C° 0 mm 2 mps 744 mmHg 63%
    12:00 +24°C° 0 mm 2 mps 744 mmHg 61%
    13:00 +24°C° 0 mm 2 mps 744 mmHg 60%
    14:00 +25°C° 0 mm 2 mps 743 mmHg 58%
    15:00 +24°C° 0 mm 2 mps 743 mmHg 64%
    16:00 +23°C° 0 mm 2 mps 743 mmHg 69%
    17:00 +20°C° 0 mm 2 mps 743 mmHg 75%
    18:00 +19°C° 0 mm 2 mps 743 mmHg 78%
    19:00 +18°C° 0 mm 2 mps 743 mmHg 82%
    20:00 +17°C° 0 mm 2 mps 743 mmHg 85%
    21:00 +17°C° 0 mm 2 mps 742 mmHg 87%
    22:00 +16°C° 0 mm 2 mps 742 mmHg 89%
    23:00 +16°C° 0 mm 3 mps 742 mmHg 91%

    Day after tomorrow, 22 September, Saturday

    Time Temperature Precipitation Wind Pressure Humidity
    00:00 +16°C° 0 mm 3 mps 742 mmHg 92%
    01:00 +16°C° 0 mm 3 mps 742 mmHg 94%
    02:00 +16°C° 0 mm 3 mps 742 mmHg 95%
    03:00 +16°C° 0 mm 3 mps 741 mmHg 94%
    04:00 +16°C° 0 mm 3 mps 741 mmHg 94%
    05:00 +16°C° 0 mm 3 mps 741 mmHg 93%
    06:00 +17°C° 0 mm 4 mps 740 mmHg 88%
    07:00 +18°C° 0 mm 4 mps 740 mmHg 83%
    08:00 +19°C° 0 mm 5 mps 740 mmHg 78%
    09:00 +20°C° 0 mm 5 mps 740 mmHg 71%
    10:00 +22°C° 0 mm 6 mps 739 mmHg 64%
    11:00 +23°C° 0 mm 6 mps 739 mmHg 57%
    12:00 +23°C° 0 mm 6 mps 738 mmHg 56%
    13:00 +24°C° 0 mm 6 mps 738 mmHg 54%
    14:00 +24°C° 0 mm 6 mps 738 mmHg 53%
    15:00 +23°C° 0.1 mm 5 mps 738 mmHg 58%
    16:00 +22°C° 0.1 mm 4 mps 737 mmHg 63%
    17:00 +20°C° 0.1 mm 3 mps 737 mmHg 68%
    18:00 +19°C° 0.6 mm 3 mps 737 mmHg 74%
    19:00 +17°C° 0.6 mm 3 mps 737 mmHg 80%
    20:00 +14°C° 0.6 mm 3 mps 737 mmHg 86%
    21:00 +13°C° 0.4 mm 3 mps 737 mmHg 87%
    22:00 +12°C° 0.4 mm 3 mps 737 mmHg 87%
    23:00 +11°C° 0.4 mm 3 mps 737 mmHg 88%

    23 September, Sunday

    Time Temperature Precipitation Wind Pressure Humidity
    00:00 +11°C° 0.2 mm 3 mps 736 mmHg 88%
    01:00 +11°C° 0.2 mm 3 mps 736 mmHg 89%
    02:00 +10°C° 0.2 mm 3 mps 736 mmHg 90%
    03:00 +9°C° 1.1 mm 3 mps 736 mmHg 91%
    04:00 +9°C° 1.1 mm 3 mps 736 mmHg 92%
    05:00 +7°C° 1.1 mm 4 mps 735 mmHg 93%
    06:00 +8°C° 1.5 mm 3 mps 735 mmHg 94%
    07:00 +8°C° 1.5 mm 3 mps 735 mmHg 94%
    08:00 +8°C° 1.5 mm 3 mps 735 mmHg 95%
    09:00 +8°C° 1.2 mm 3 mps 735 mmHg 93%
    10:00 +9°C° 1.2 mm 3 mps 735 mmHg 92%
    11:00 +9°C° 1.2 mm 3 mps 735 mmHg 91%
    12:00 +10°C° 0.1 mm 3 mps 735 mmHg 87%
    13:00 +11°C° 0.1 mm 3 mps 735 mmHg 83%
    14:00 +12°C° 0.1 mm 3 mps 735 mmHg 78%
    15:00 +12°C° 0.1 mm 3 mps 735 mmHg 80%
    16:00 +11°C° 0.1 mm 3 mps 735 mmHg 82%
    17:00 +11°C° 0.1 mm 3 mps 735 mmHg 83%
    18:00 +10°C° 0.1 mm 3 mps 735 mmHg 86%
    19:00 +9°C° 0.1 mm 3 mps 735 mmHg 88%
    20:00 +8°C° 0.1 mm 3 mps 735 mmHg 90%
    21:00 +8°C° 0 mm 3 mps 735 mmHg 92%
    22:00 +7°C° 0 mm 3 mps 735 mmHg 93%
    23:00 +7°C° 0 mm 3 mps 735 mmHg 94%

    24 September, Monday

    Time Temperature Precipitation Wind Pressure Humidity
    00:00 +7°C° 0 mm 3 mps 735 mmHg 95%
    01:00 +5°C° 0 mm 3 mps 735 mmHg 95%
    02:00 +5°C° 0 mm 3 mps 735 mmHg 95%
    03:00 +5°C° 0 mm 3 mps 735 mmHg 96%
    04:00 +5°C° 0 mm 3 mps 735 mmHg 96%
    05:00 +5°C° 0 mm 3 mps 735 mmHg 96%
    06:00 +5°C° 0 mm 3 mps 735 mmHg 94%
    07:00 +7°C° 0 mm 3 mps 735 mmHg 92%
    08:00 +7°C° 0 mm 3 mps 735 mmHg 90%
    09:00 +9°C° 0 mm 3 mps 735 mmHg 83%
    10:00 +10°C° 0 mm 3 mps 735 mmHg 76%
    11:00 +12°C° 0 mm 3 mps 735 mmHg 68%
    12:00 +12°C° 0.1 mm 3 mps 734 mmHg 68%
    13:00 +12°C° 0.1 mm 3 mps 734 mmHg 67%
    14:00 +12°C° 0.1 mm 3 mps 734 mmHg 67%
    15:00 +11°C° 0.3 mm 3 mps 733 mmHg 72%
    16:00 +10°C° 0.3 mm 3 mps 732 mmHg 78%
    17:00 +9°C° 0.3 mm 3 mps 732 mmHg 84%
    18:00 +8°C° 1.4 mm 4 mps 731 mmHg 87%
    19:00 +7°C° 1.4 mm 4 mps 730 mmHg 89%
    20:00 +7°C° 1.4 mm 5 mps 729 mmHg 91%
    21:00 +7°C° 2 mm 6 mps 728 mmHg 92%
    22:00 +5°C° 2 mm 6 mps 727 mmHg 92%
    23:00 +5°C° 2 mm 7 mps 726 mmHg 92%

    25 September, Tuesday

    Time Temperature Precipitation Wind Pressure Humidity
    00:00 +5°C° 3.1 mm 7 mps 725 mmHg 93%
    01:00 +5°C° 3.1 mm 7 mps 724 mmHg 93%
    02:00 +5°C° 3.1 mm 7 mps 723 mmHg 94%
    03:00 +5°C° 2.6 mm 7 mps 723 mmHg 94%
    04:00 +5°C° 2.6 mm 7 mps 723 mmHg 94%
    05:00 +5°C° 2.6 mm 6 mps 722 mmHg 94%
    06:00 +5°C° 1.3 mm 6 mps 722 mmHg 93%
    07:00 +5°C° 1.3 mm 6 mps 723 mmHg 93%
    08:00 +5°C° 1.3 mm 6 mps 723 mmHg 93%
    09:00 +5°C° 1.6 mm 7 mps 723 mmHg 92%
    10:00 +5°C° 1.6 mm 7 mps 724 mmHg 92%
    11:00 +5°C° 1.6 mm 8 mps 724 mmHg 92%
    12:00 +5°C° 1.1 mm 8 mps 725 mmHg 91%
    13:00 +5°C° 1.1 mm 8 mps 726 mmHg 90%
    14:00 +5°C° 1.1 mm 9 mps 726 mmHg 90%
    15:00 +3°C° 0.7 mm 9 mps 727 mmHg 88%
    16:00 +3°C° 0.7 mm 9 mps 728 mmHg 87%
    17:00 +3°C° 0.7 mm 9 mps 729 mmHg 86%
    18:00 +3°C° 0.4 mm 9 mps 729 mmHg 86%
    19:00 +3°C° 0.4 mm 9 mps 730 mmHg 85%
    20:00 +3°C° 0.4 mm 9 mps 731 mmHg 85%
    21:00 +2°C° 0.3 mm 9 mps 731 mmHg 85%
    22:00 +2°C° 0.3 mm 8 mps 732 mmHg 86%
    23:00 +2°C° 0.3 mm 8 mps 732 mmHg 87%
    Show more